Waynesville, MO

8:15 PM CST on February 06, 2016 (GMT -0600)
Waynesville Regional At Forney Field

Weather History for KTBN - October, 2014

Change the Weather History Date:

Wednesday, October 22, 2014

  Actual Average (KVIH) Record (KVIH)
Temperature  
Mean Temperature 56 °F 55 °F  
Max Temperature 68 °F 66 °F 86 °F (1903)
Min Temperature 43 °F 44 °F 29 °F (1976)
Degree Days  
Heating Degree Days 10 11  
Month to date heating degree days 175  
Since 1 July heating degree days 239  
Cooling Degree Days 0 1  
Month to date cooling degree days 25  
Year to date cooling degree days 1243  
Growing Degree Days 6 (Base 50)    
Moisture  
Dew Point 45 °F    
Average Humidity 73    
Maximum Humidity 97    
Minimum Humidity 45    
Precipitation  
Precipitation 0.00 in 0.12 in 1.73 in (1951)
Month to date precipitation 2.47  
Year to date precipitation 36.06  
Sea Level Pressure  
Sea Level Pressure 30.22 in    
Wind  
Wind Speed 6 mph (ESE)    
Max Wind Speed 10 mph    
Max Gust Speed -    
Visibility 10 miles    
Events      
T = Trace of Precipitation, MM = Missing Value Source: NWS Daily Summary

Daily Weather History Graph

Daily Weather History Graph

Search for Another Location

Airport or City:

Trip Planner

Search our weather history database for the weather conditions in past years. The results will help you decide how hot, cold, wet, or windy it might be!

Date:

Astronomy

Oct. 22, 2014 Rise Set
Actual Time 7:23 AM CDT 6:21 PM CDT
Civil Twilight 6:57 AM CDT 6:48 PM CDT
Nautical Twilight 6:26 AM CDT 7:18 PM CDT
Astronomical Twilight 5:55 AM CDT 7:49 PM CDT
Moon 6:06 AM CDT (10/22) 5:47 PM CDT (10/22)
Length of Visible Light 11h 51m
Length of Day
10h 58m
Waning Crescent, 1% of the Moon is Illuminated
Oct 22
Waning Crescent
Oct 23
New
Oct 30
First Quarter
Nov 6
Full
Nov 14
Last Quarter

Hourly Weather History & Observations

Time (CDT) Temp. Windchill Dew Point Humidity Pressure Visibility Wind Dir Wind Speed Gust Speed Precip Events Conditions
12:58 AM 50.5 °F - 46.0 °F 85% 30.17 in 10.0 mi East 5.8 mph - N/A   Clear
1:58 AM 49.6 °F - 45.5 °F 86% 30.17 in 10.0 mi East 5.8 mph - N/A   Clear
2:58 AM 47.8 °F - 45.0 °F 90% 30.18 in 10.0 mi East 5.8 mph - N/A   Clear
3:58 AM 45.1 °F - 43.2 °F 93% 30.19 in 10.0 mi East 2.3 mph - N/A   Clear
4:58 AM 44.4 °F 42.9 °F 43.7 °F 97% 30.22 in 10.0 mi East 3.5 mph - N/A   Clear
5:58 AM 44.2 °F 41.8 °F 43.3 °F 97% 30.24 in 10.0 mi East 4.6 mph - N/A   Clear
6:58 AM 44.4 °F 41.2 °F 43.2 °F 95% 30.24 in 10.0 mi ESE 5.8 mph - N/A   Clear
7:58 AM 43.9 °F 41.3 °F 43.0 °F 97% 30.27 in 10.0 mi ESE 4.6 mph - N/A   Clear
8:58 AM 47.7 °F - 43.9 °F 87% 30.29 in 10.0 mi SSE 6.9 mph - N/A   Clear
9:58 AM 52.3 °F - 43.9 °F 73% 30.29 in 10.0 mi SE 10.4 mph - N/A   Clear
10:58 AM 57.7 °F - 44.1 °F 60% 30.29 in 10.0 mi SE 10.4 mph - N/A   Clear
11:58 AM 61.0 °F - 45.3 °F 56% 30.29 in 10.0 mi SE 6.9 mph - N/A   Clear
12:58 PM 64.0 °F - 46.2 °F 52% 30.25 in 5.0 mi Variable 6.9 mph - N/A   Haze
1:10 PM 64.4 °F - 46.4 °F 52% 30.24 in 10.0 mi ESE 8.1 mph - N/A   Clear
1:58 PM 65.5 °F - 46.8 °F 51% 30.22 in 10.0 mi ENE 4.6 mph - N/A   Clear
2:58 PM 67.1 °F - 46.6 °F 48% 30.20 in 10.0 mi SSE 4.6 mph - N/A   Clear
3:58 PM 68.0 °F - 46.4 °F 46% 30.19 in 10.0 mi ESE 5.8 mph - N/A   Clear
4:58 PM 67.6 °F - 45.5 °F 45% 30.18 in 10.0 mi SE 8.1 mph - N/A   Clear
5:58 PM 65.1 °F - 45.0 °F 48% 30.18 in 10.0 mi ESE 6.9 mph - N/A   Clear
6:58 PM 58.1 °F - 46.2 °F 65% 30.19 in 10.0 mi SE 4.6 mph - N/A   Clear
7:58 PM 54.3 °F - 45.1 °F 71% 30.21 in 10.0 mi SSE 5.8 mph - N/A   Clear
8:58 PM 52.2 °F - 44.6 °F 75% 30.21 in 10.0 mi SE 6.9 mph - N/A   Clear
9:58 PM 49.3 °F - 45.0 °F 85% 30.21 in 10.0 mi SSE 5.8 mph - N/A   Clear
10:58 PM 47.1 °F - 44.1 °F 89% 30.21 in 10.0 mi SSE 4.6 mph - N/A   Clear
11:58 PM 45.3 °F 44.0 °F 43.5 °F 93% 30.21 in 10.0 mi SSE 3.5 mph - N/A   Clear